     2              OBSERVATION DATA    GPS                 RINEX VERSION / TYPE
teqc 1998Mar9 19980311 23:39:22UTC                          PGM / RUN BY / DATE
                                                            COMMENT
Original Marker Name: unknown                               COMMENT
Campaign Name: Cholame 1989                                 COMMENT
4-Character Station Name: P807                              COMMENT
6-Character Antenna Code: TI4100                            COMMENT
Vertical Measurement Point: PAE                             COMMENT
Vertical Offset to Rinex Ref. Point: 0.0000                 COMMENT
Radial Measurement Point: PAE                               COMMENT
Radial Offset to Rinex Ref. Point: 0.0842                   COMMENT
Antenna Height from Field Measurement: 1.2060 m             COMMENT
Original XYZ: 0.0000 0.0000 0.0000                          COMMENT
New XYZ position is based on association with SCEC monument COMMENT
E1F1F2B2+0011. Position of that monument is believed to be  COMMENT
valid to within 1 m horizontally; vertical accuracy         COMMENT
should be no worse than 3-times this value.                 COMMENT
                                                            COMMENT
Revised Rinex header created by UCSD GPS archive for        COMMENT
GSAC on 14-Apr-1999 (1999:104) 22:39:32 GMT                 COMMENT
For assistance contact dagnew@ucsd.edu or hjohnson@ucsd.edu COMMENT
                                                            COMMENT
P807                                                        MARKER NAME
unknown UCLA                                                OBSERVER / AGENCY
UN06 TI 4100 2.1                                            REC # / TYPE / VERS
UN06 TI 4100                                                ANT # / TYPE
 -2584426.0000 -4502907.0000  3692603.0000                  APPROX POSITION XYZ
        1.2031        0.0000        0.0000                  ANTENNA: DELTA H/E/N
     1     1     0                                          WAVELENGTH FACT L1/2
     4    P1    P2    L1    L2                              # / TYPES OF OBSERV
     0                                                      INTERVAL
  1989    11    13    15    30   59.000000                  TIME OF FIRST OBS
  1989    11    13    16    56   59.000000                  TIME OF LAST OBS
     0                                                      # OF SATELLITES
                                                            END OF HEADER
 89 11 13 15 30 59.0800000  0  4G13G12G 3G 9
  17686287.808    17686294.719    71086230.720 9-112768162.937 7
  17522037.179    17522043.682    31422736.168 9 -33297763.963 8
  17728126.284    17728132.165    29387710.193 9 -64318023.588 9
  20709622.775    20709635.427   101531311.382 7-107067310.574 8
 89 11 13 15 31 29.0800000  0  4G13G12G 3G 9
  17694605.649    17694612.308    71129943.763 9-112734100.875 8
  17534763.650    17534770.212    31489611.506 9 -33245653.505 7
  17722969.982    17722974.829    29360610.253 9 -64339140.532 7
  20733281.541    20733294.349   101655633.851 8-106970436.478 8
 89 11 13 15 31 59.0800000  0  4G13G12G 3G 9
  17702946.362    17702952.371    71173761.652 9-112699957.183 7
  17547586.542    17547594.781    31556997.853 9 -33193144.859 8
  17717850.952    17717856.575    29333709.093 9 -64360102.584 7
  20756949.196    20756962.292   101780006.621 8-106873523.154 8
 89 11 13 15 32 29.0800000  0  4G13G12G 3G 9
  17711303.527    17711309.637    71217683.657 9-112665732.345 8
  17560507.708    17560514.282    31624892.598 9 -33140240.049 8
  17712769.159    17712774.662    29307006.363 9 -64380909.997 8
  20780626.841    20780639.174   101904426.670 8-106776572.997 8
 89 11 13 15 32 59.0800000  0  4G13G12G 3G 9
  17719680.606    17719688.247    71261708.960 9-112631427.022 8
  17573523.775    17573530.575    31693293.228 9 -33086941.047 7
  17707726.209    17707731.196    29280501.443 8 -64401563.276 8
  20804311.380    20804323.719   102028891.163 9-106679588.218 8
 89 11 13 15 33 29.0800000  0  4G13G12G 3G 9
  17728077.765    17728082.831    71305836.186 9-112597042.294 8
  17586636.061    17586642.774    31762197.261 9 -33033249.789 8
  17702720.239    17702725.634    29254193.364 9 -64422063.148 8
  20828004.271    20828017.959   102153396.720 9-106582571.439 7
 89 11 13 15 34 29.0800000  0  4G13G12G 3G 9
  17744928.863    17744936.872    71394392.898 9-112528037.302 7
  17613145.970    17613152.180    31901504.916 9 -32924698.778 8
  17692818.887    17692824.424    29202165.432 9 -64462604.527 8
  20875412.498    20875423.356   102402518.869 9-106388451.331 7
 89 11 13 15 34 59.0800000  0  4G13G12G 3G 9
  17753383.967    17753390.344    71438820.937 9-112493418.180 7
  17626541.555    17626549.914    31971903.156 9 -32869843.224 8
  17687926.138    17687930.493    29176444.068 9 -64482647.214 8
  20899124.355    20899137.379   102527128.915 9-106291353.135 7
 89 11 13 15 35 29.0800000  0  4G13G12G 3G 9
  17761857.194    17761863.204    71483347.094 9-112458722.651 7
  17640032.307    17640040.789    32042794.299 9 -32814603.594 9
  17683067.819    17683071.416    29150917.247 9 -64502538.314 7
  20922843.718    20922856.582   102651767.756 8-106194232.519 8
 89 11 13 15 35 59.0800000  0  4G13G12G 3G 9
  17770348.698    17770355.781    71527971.142 9-112423950.888 8
  17653615.908    17653623.415    32114175.971 9 -32758981.724 8
  17678245.906    17678252.073    29125584.319 8 -64522278.331 7
  20946565.448    20946580.157   102776432.332 8-106097091.875 8
 89 11 13 15 36 29.0800000  0  4G13G12G 3G 9
  17778859.455    17778866.534    71572691.231 9-112389104.545 8
  17667293.087    17667300.772    32186045.105 9 -32702980.017 8
  17673463.131    17673467.594    29100443.998 9 -64541868.273 7
  20970293.705    20970307.478   102901119.220 9-105999933.849 8
 89 11 13 15 36 59.0800000  0  4G13G12G 3G 9
  17787387.869    17787395.800    71617507.390 9-112354183.355 7
  17681061.309    17681069.913    32258399.303 9 -32646600.358 8
  17668715.116    17668720.406    29075496.254 9 -64561308.167 7
  20994025.108    20994039.501   103025825.574 9-105902760.652 8
 89 11 13 15 37 29.0800000  0  4G13G12G 3G 9
  17795935.088    17795940.822    71662419.579 9-112319186.948 7
  17694920.753    17694929.711    32331236.196 9 -32589844.557 9
  17664003.993    17664009.314    29050740.311 9 -64580598.608 8
  21017758.942    21017774.155   103150548.497 8-105805574.573 8
 89 11 13 15 37 59.0800000  0  4G13G12G 3G 9
  17804499.784    17804505.694    71707426.184 9-112284116.853 8
  17708874.568    17708881.682    32404553.103 9 -32532714.712 9
  17659330.935    17659336.162    29026175.810 9 -64599739.885 7
  21041497.259    21041511.062   103275284.936 8-105708377.964 8
 89 11 13 15 38 29.0800000  0  4G13G12G 3G 9
  17813081.809    17813087.923    71752526.525 9-112248973.727 8
  17722916.699    17722923.819    32478347.167 9 -32475213.081 7
  17654691.562    17654697.668    29001801.435 9 -64618733.015 7
  21065235.512    21065250.295   103400031.505 9-105611173.464 8
 89 11 13 15 38 59.0800000  0  4G13G12G 3G 9
  17821680.558    17821689.130    71797719.308 8-112213758.591 8
  17737049.320    17737056.857    32552615.371 9 -32417341.987 8
  17650089.578    17650094.542    28977616.856 9 -64637578.247 8
  21088975.744    21088990.830   103524785.206 9-105513963.418 8
 89 11 13 15 39 29.0800000  0  4G13G12G 3G 9
  17830299.239    17830306.216    71843003.706 9-112178472.127 8
  17751271.651    17751280.303    32627355.270 9 -32359103.332 8
  17645524.221    17645528.237    28953621.193 9 -64656276.265 8
  21112717.104    21112731.753   103649542.876 8-105416750.265 8
 89 11 13 15 39 59.0800000  0  4G13G12G 3G 9
  17838933.233    17838942.428    71888383.474 9-112143111.404 8
  17765584.002    17765593.211    32702568.254 9 -32300496.065 9
  17640994.295    17640998.903    28929818.489 9 -64674823.932 8
  21136459.027    21136475.156   103774305.764 8-105319533.061 8
 89 11 13 15 40 29.0800000  0  4G13G12G 3G 9
  17847585.994    17847594.169    71933854.124 9-112107679.915 7
  17779985.929    17779994.094    32778248.053 9 -32241525.024 8
  17636500.895    17636506.878    28906204.194 9 -64693224.787 7
  21160200.484    21160217.846   103899067.176 7-105222317.026 7
 89 11 13 15 40 59.0800000  0  4G13G12G 3G 9
  17856256.293    17856264.464    71979412.998 9-112072179.632 7
  17794474.541    17794482.914    32854390.039 9 -32182193.863 8
  17632043.214    17632047.102    28882775.745 9 -64711480.797 7
  21183939.816    21183957.532   104023822.313 7-105125105.921 8
 89 11 13 15 41 29.0800000  0  4G13G12G 3G 9
  17864944.145    17864951.406    71979329.021 8-112036603.985 8
  17809055.471    17809064.237    32870584.425 9 -32122497.708 9
  17627622.252    17627625.743    28811030.272 7 -64729583.302 8
  21207681.671    21207697.583   104148576.584 9-104997728.566 8
 89 11 13 15 41 59.0800000  0  4G13G12G 3G 9
  17873651.572    17873658.851    72025083.049 9-112000951.214 8
  17823721.968    17823731.108    32947663.515 8 -32062436.325 7
  17623237.127    17623242.652    28787992.846 9 -64747534.236 8
  21231421.779    21231438.094   104273330.598 9-104900518.381 7
 89 11 13 15 42 29.0800000  0  4G13G12G 3G 9
  17882374.602    17882381.675    72070923.233 9-111965231.747 8
  17838476.354    17838484.901    33025196.586 9 -32002021.198 8
  17618888.818    17618894.497    28765140.325 9 -64765341.463 8
  21255160.177    21255175.534   104398070.176 9-104803319.342 8
 89 11 13 15 42 59.0800000  0  4G13G12G 3G 9
  17891114.506    17891122.461    72116848.908 9-111929445.564 8
  17853317.283    17853324.575    33103180.501 9 -31941254.755 8
  17614575.445    17614580.781    28742471.152 9 -64783005.798 7
  21278893.597    21278911.083   104522791.166 9-104706134.800 7
 89 11 13 15 43 29.0800000  0  4G13G12G 3G 9
  17899869.755    17899876.646    72162860.379 9-111893592.614 7
  17868241.515    17868250.143    33181613.355 9 -31880138.509 7
  17610296.461    17610301.424    28719986.093 9 -64800526.709 8
  21302624.693    21302640.624   104647491.881 9-104608966.079 8
 89 11 13 15 43 59.0800000  0  4G13G12G 3G 9
  17908642.145    17908649.186    72208956.789 9-111857673.455 7
  17883252.886    17883259.728    33260492.579 9 -31818674.419 7
  17606052.908    17606058.545    28697684.344 9 -64817904.792 7
  21326350.411    21326366.153   104772169.519 9-104511815.363 8
 89 11 13 15 44 29.0800000  0  4G13G12G 3G 9
  17917429.519    17917436.327    72255137.936 9-111821688.229 6
  17898347.392    17898355.752    33339815.441 9 -31756864.664 7
  17601843.945    17601849.356    28675565.780 9 -64835140.127 8
  21350071.799    21350088.068   104896821.060 9-104414685.006 8
 89 11 13 15 44 59.0800000  0  4G13G12G 3G 9
  17926234.421    17926241.866    72301403.109 9-111785637.538 8
  17913525.926    17913533.403    33419579.225 9 -31694711.321 8
  17597669.823    17597674.939    28653629.625 9 -64852233.326 8
  21373786.357    21373802.867   105021443.487 9-104317577.339 9
 89 11 13 15 45 29.0800000  0  4G13G12G 3G 9
  17935053.574    17935062.346    72347751.209 9-111749522.269 7
  17928788.335    17928796.619    33499780.770 9 -31632216.864 8
  17593530.366    17593534.827    28631875.107 9 -64869185.011 9
  21397496.553    21397514.626   105146033.870 9-104220494.663 9
 89 11 13 15 45 59.0800000  0  4G13G12G 3G 9
  17943889.493    17943896.815    72394181.624 9-111713342.811 8
  17944132.740    17944142.364    33580417.035 9 -31569383.684 9
  17589424.882    17589429.868    28610301.787 9 -64885995.487 8
  21421198.644    21421214.810   105270589.030 7-104123439.419 7
 89 11 13 15 46 29.0800000  0  4G13G12G 3G 9
  17952740.944    17952747.936    72440693.834 9-111677099.621 8
  17959560.648    17959568.261    33661485.233 9 -31506213.900 8
  17585353.440    17585359.363    28588908.924 9 -64902665.337 8
  21444894.564    21444909.904   105395106.227 8-104026413.810 9
 89 11 13 15 46 59.0800000  0  4G13G12G 3G 9
  17961608.029    17961613.542    72487286.916 9-111640793.435 7
  17975068.636    17975077.448    33742982.581 9 -31442709.726 9
  17581317.566    17581322.515    28567696.422 9 -64919194.622 8
  21468581.589    21468597.671   105519582.529 7-103929420.069 7
 89 11 13 15 47 29.0800000  0  4G13G12G 3G 9
  17970488.408    17970495.482    72533960.489 9-111604424.541 8
  17990658.803    17990668.264    33824905.761 9 -31378873.755 8
  17577315.119    17577320.225    28546663.428 9 -64935584.039 7
  21492260.615    21492277.771   105644014.945 8-103832460.491 8
 89 11 13 15 47 59.0800000  0  4G13G12G 3G 9
  17979384.634    17979393.186    72580714.010 9-111567993.339 7
  18006327.979    18006337.378    33907251.879 9 -31314708.210 8
  17573347.091    17573351.658    28525809.418 9 -64951833.989 7
  21515930.856    21515949.027   105768400.409 8-103735537.516 7
 89 11 13 15 48 29.0800000  0  4G13G12G 3G 9
  17988297.792    17988306.616    72627546.626 9-111531500.524 7
  18022078.348    18022088.011    33990018.011 9 -31250215.396 7
  17569412.293    17569418.751    28505133.475 9 -64967945.172 8
  21539592.222    21539609.436   105892735.919 8-103638653.452 8
 89 11 13 15 48 59.0800000  0  4G13G12G 3G 9
  17997225.675    17997233.058    72674458.195 9-111494946.175 8
  18037907.587    18037917.145    34073201.250 9 -31185397.541 9
  17565511.080    17565516.615    28484635.470 9 -64983917.678 8
  21563242.626    21563261.681   106017018.784 9-103541810.434 8
 89 11 13 15 49 29.0800000  0  4G13G12G 3G 9
  18006167.448    18006175.771    72721447.607 9-111458331.164 8
  18053815.892    18053826.163    34156798.518 9 -31120257.092 8
  17561645.374    17561650.228    28464314.552 9 -64999752.223 8
  21586883.505    21586901.694   106141246.041 9-103445010.756 8
 89 11 13 15 49 59.0800000  0  4G13G12G 3G 9
  18015121.980    18015131.500    72768514.314 9-111421655.901 9
  18069802.155    18069812.647    34240806.667 9 -31054796.486 8
  17557811.802    17557817.252    28444170.087 9 -65015449.252 7
  21610512.704    21610531.167   106265414.673 8-103348256.761 9
 89 11 13 15 50 29.0800000  0  4G13G12G 3G 9
  18024094.307    18024102.449    72815658.082 9-111384920.545 8
  18085866.133    18085876.160    34325222.887 9 -30989017.860 8
  17554011.266    17554016.839    28424202.000 9 -65031008.823 8
  21634128.841    21634147.696   106389521.843 8-103251550.675 9
 89 11 13 15 50 59.0800000  0  4G13G12G 3G 9
  18033080.145    18033087.833    72862878.113 9-111348125.797 8
  18102006.928    18102017.679    34410044.328 9 -30922923.540 8
  17550245.697    17550252.022    28404409.245 9 -65046431.773 8
  21657736.116    21657754.304   106513564.674 8-103154894.750 8
 89 11 13 15 51 29.0800000  0  4G13G12G 3G 9
  18042080.700    18042088.485    72910173.728 9-111311272.170 8
  18118225.636    18118233.812    34495267.552 9 -30856516.078 8
  17546512.390    17546517.690    28384791.376 9 -65061718.451 7
  21681326.820    21681346.634   106637540.053 8-103058291.386 8
 89 11 13 15 51 59.0800000  0  4G13G12G 3G 9
  18051095.372    18051103.861    72957544.019 9-111274360.341 7
  18134519.081    18134528.020    34580889.424 9 -30789797.989 8
  17542812.330    17542818.416    28365347.741 9 -65076869.364 8
  21704905.614    21704925.770   106761444.721 7-102961743.129 8
 89 11 13 15 52 29.0800000  0  4G13G12G 3G 9
  18060123.470    18060131.031    73004988.834 9-111237390.461 8
  18150887.696    18150897.311    34666906.846 9 -30722771.716 8
  17539145.466    17539151.310    28346077.835 9 -65091884.892 7
  21728471.326    21728491.988   106885276.263 8-102865251.863 8
 89 11 13 15 52 59.0800000  0  4G13G12G 3G 9
  18069166.607    18069174.429    73052507.582 9-111200362.925 9
  18167331.341    18167340.711    34753316.719 9 -30655439.617 8
  17535511.308    17535518.160    28326981.364 9 -65106765.291 7
  21752021.477    21752040.875   107009031.814 8-102768819.791 8
 89 11 13 15 53 29.0800000  0  4G13G12G 3G 9
  18078222.456    18078231.085    73100099.863 9-111163278.122 8
  18183848.347    18183857.456    34840116.252 9 -30587803.892 8
  17531909.755    17531914.746    28308057.831 9 -65121510.912 8
  21775557.224    21775576.453   107132708.454 8-102672449.223 8
 89 11 13 15 53 59.0800000  0  4G13G12G 3G 9
  18087293.082    18087300.998    73147765.324 9-111126136.291 8
  18200439.411    18200449.834    34927302.306 9 -30519866.982 8
  17528342.346    17528348.322    28289306.662 9 -65136122.214 8
  21799077.745    21799097.646   107256303.580 9-102576142.198 8
 89 11 13 15 54 29.0800000  0  4G13G12G 3G 9
  18096376.990    18096385.233    73195503.146 9-111088938.097 8
  18217104.232    18217114.031    35014871.426 9 -30451631.580 9
  17524806.500    17524812.837    28270727.240 9 -65150599.712 7
  21822580.746    21822602.329   107379813.938 9-102479901.202 8
 89 11 13 15 54 59.0800000  0  4G13G12G 3G 9
  18105474.693    18105482.874    73243313.589 9-111051683.294 8
  18233839.587    18233852.131    35102820.848 9 -30383099.870 8
  17521302.944    17521308.741    28252319.059 9 -65164943.778 7
  21846068.700    21846088.493   107503237.048 9-102383728.238 7
 89 11 13 15 55 29.0800000  0  4G13G12G 3G 9
  18114587.060    18114594.233    73291195.120 9-111014373.094 7
  18250648.884    18250658.892    35191147.321 9 -30314274.308 9
  17517833.139    17517839.524    28234081.650 9 -65179154.772 7
  21869538.477    21869557.303   107626569.980 9-102287625.550 7
 89 11 13 15 55 59.0800000  0  4G13G12G 3G 9
  18123711.746    18123720.604    73339148.208 9-110977007.161 7
  18267527.709    18267538.303    35279848.265 9 -30245156.971 9
  17514394.618    17514401.282    28216015.175 9 -65193232.567 8
  21892991.377    21893011.458   107749810.141 9-102191595.144 6
 89 11 13 15 56 29.0800000  0  4G13G12G 3G 9
  18132850.704    18132858.999    73387172.165 9-110939585.982 7
  18284477.804    18284487.824    35368920.289 9 -30175750.485 8
  17510989.562    17510994.604    28198118.378 9 -65207178.130 8
  21916425.801    21916445.906   107872954.505 9-102095639.401 6
 89 11 13 15 56 59.0800000  0  4G13G12G 3G 9
  18142002.170    18142012.006    73435266.078 9-110902110.314 8
  18301498.446    18301507.269    35458359.921 9 -30106057.490 7
  17507615.432    17507620.399    28180391.029 9 -65220991.647 8
  21939841.233    21939860.489   107996000.178 9-101999760.507 5
 89 11 13 15 57 29.0800000  0  4G13G12G 3G 9
  18151167.357    18151177.262    73483429.359 9-110864580.567 7
  18318586.638    18318597.725    35548163.798 9 -30036080.732 8
  17504274.769    17504279.378    28162832.255 9 -65234673.783 8
  21963237.915    21963258.736   108118944.198 9-101903960.859 6
 89 11 13 15 57 59.0800000  0  4G13G12G 3G 9
  18160346.715    18160354.294    73531662.223 9-110826996.585 7
  18335745.556    18335755.973    35638328.845 9 -29965822.524 8
  17500965.055    17500972.423    28145441.798 9 -65248224.784 8
  21986612.864    21986635.730   108241783.884 8-101808242.514 6
 89 11 13 15 58 29.0800000  0  4G13G12G 3G 9
  18169538.664    18169546.391    73579963.896 9-110789359.024 7
  18352971.664    18352981.409    35728851.934 9 -29895285.279 8
  17497688.641    17497694.176    28128219.347 9 -65261644.896 8
  22009969.277    22009992.119   108364516.716 7-101712607.456 6
 89 11 13 15 58 59.0800000  0  4G13G12G 3G 9
  18178742.637    18178750.650    73628333.805 9-110751668.301 7
  18370264.208    18370275.788    35819729.782 9 -29824471.656 8
  17494443.179    17494448.827    28111164.202 9 -65274934.642 8
  22033302.381    22033327.662   108487139.655 6-101617058.077 7
 89 11 13 15 59 29.0800000  0  4G13G12G 3G 9
  18187960.314    18187967.751    73676771.651 9-110713924.645 7
  18387626.267    18387637.007    35910959.400 9 -29753383.916 9
  17491228.294    17491233.770    28094276.086 9 -65288094.239 9
  22056619.286    22056640.082   108609649.867 3-101521596.586 8
 89 11 13 15 59 59.0800000  0  4G13G12G 3G 9
  18197191.019    18197199.923    73725276.983 9-110676128.403 8
  18405052.718    18405063.455    36002537.670 9 -29682024.499 8
  17488047.044    17488053.582    28077554.154 9 -65301124.364 7
  22079910.036    22079931.379   108732044.597 3-101426225.102 7
 89 11 13 16  0 29.0800000  0  4G13G12G 3G 9
  18206433.532    18206443.242    73773849.508 9-110638279.779 8
  18422543.698    18422555.672    36094461.108 9 -29610396.147 9
  17484896.547    17484902.650    28060998.311 9 -65314025.067 8
  22103179.729    22103200.412   108854321.162 6-101330945.632 7
 89 11 13 16  0 59.0800000  0  4G13G12G 3G 9
  18215689.229    18215697.967    73822488.878 9-110600379.047 8
  18440103.208    18440114.424    36186726.301 9 -29538501.463 8
  17481777.466    17481783.018    28044607.994 9 -65326796.762 8
  22126423.922    22126447.929   108976476.682 7-101235760.477 8
 89 11 13 16  1 29.0800000  0  4G13G12G 3G 9
  18224958.207    18224967.032    73871194.722 9-110562426.531 8
  18457724.635    18457736.818    36279330.277 9 -29466342.797 8
  17478689.516    17478695.383    28028382.948 9 -65339439.702 8
  22149647.818    22149671.314   109098508.631 6-101140671.631 9
 89 11 13 16  1 59.0800000  0  4G13G12G 3G 9
  18234240.064    18234247.515    73919966.446 9-110524422.657 7
  18475411.351    18475422.638    36372269.859 9 -29393922.623 8
  17475634.102    17475639.824    28012322.455 9 -65351954.399 7
  22172846.849    22172870.751   109220414.311 7-101045681.150 8
 89 11 13 16  2 29.0800000  0  4G13G12G 3G 9
  18243532.824    18243540.335    73968803.423 9-110486367.959 8
  18493160.638    18493171.197    36465541.165 9 -29321243.921 8
  17472608.944    17472613.899    27996426.125 9 -65364341.170 8
  22196019.052    22196043.733   109342190.662 6-100950791.444 6
 89 11 13 16  2 59.0800000  0  4G13G12G 3G 9
  18252839.088    18252846.758    74017705.798 9-110448262.330 8
  18510972.736    18510984.126    36559140.921 9 -29248309.294 8
  17469614.881    17469621.517    27980693.536 9 -65376600.366 8
  22219168.952    22219192.758   109463835.341 8-100856004.323 7
 89 11 13 16  3 29.0800000  0  4G13G12G 3G 9
  18262156.987    18262164.520    74066673.159 9-110410106.060 8
  18528846.459    18528856.593    36653066.288 9 -29175120.969 8
  17466652.525    17466658.367    27965124.203 9 -65388732.328 8
  22242291.643    22242318.206   109585345.642 9-100761321.904 9
 89 11 13 16  3 59.0800000  0  4G13G12G 3G 9
  18271487.350    18271495.932    74115705.653 9-110371899.025 8
  18546781.941    18546792.181    36747313.952 9 -29101681.481 8
  17463721.275    17463726.506    27949718.011 9 -65400737.176 8
  22265389.820    22265413.994   109706718.759 9-100666746.359 9
 89 11 13 16  4 29.0800000  0  4G13G12G 3G 9
  18280830.550    18280837.924    74164802.240 9-110333642.022 7
  18564775.425    18564787.209    36841880.430 8 -29027993.553 7
  17460819.581    17460825.497    27934474.379 9 -65412615.364 8
  22288460.637    22288484.888   109827952.067 6-100572279.772 7
 89 11 13 16  4 59.0800000  0  4G13G12G 3G 9
  18290185.358    18290193.509    74213962.491 9-110295335.438 8
  18582831.447    18582842.558    36936762.586 9 -28954059.681 7
  17457950.509    17457956.188    27919392.964 9 -65424367.161 8
  22311504.083    22311528.495   109949042.982 9-100477924.116 9
 89 11 13 16  5 29.0800000  0  4G13G12G 3G 9
  18299551.988    18299560.773    74263186.479 9-110256979.195 8
  18600947.521    18600957.543    37031956.924 9 -28879882.515 8
  17455111.358    17455116.406    27904473.182 9 -65435993.009 8
  22334519.514    22334545.471   110069988.713 9-100383681.594 9
 89 11 13 16  5 59.0800000  0  4G13G12G 3G 9
  18308931.181    18308939.689    74312474.154 9-110218573.339 7
  18619118.875    18619133.114    37127460.717 8 -28805464.253 8
  17452302.205    17452307.939    27889714.729 9 -65447493.133 7
  22357506.871    22357532.161   110190786.728 9-100289554.174 8
 89 11 13 16  6 29.0800000  0  4G13G12G 3G 9
  18318323.108    18318331.475    74361825.461 8-110180117.875 8
  18637352.374    18637365.270    37223270.688 9 -28730807.405 8
  17449524.532    17449531.166    27875117.308 9 -65458867.768 8
  22380466.045    22380492.444   110311434.756 9-100195543.569 8
 89 11 13 16  6 59.0800000  0  4G13G12G 3G 9
  18327725.353    18327735.394    74411239.865 9-110141613.286 8
  18655642.528    18655654.387    37319383.187 9 -28655914.808 8
  17446777.014    17446784.545    27860680.552 9 -65470117.220 8
  22403396.612    22403422.872   110431930.213 9-100101651.895 8
 89 11 13 16  7 29.0800000  0  4G13G12G 3G 9
  18337141.229    18337150.516    74460716.790 9-110103059.966 8
  18673989.136    18674002.128    37415795.056 9 -28580788.976 7
  17444060.389    17444068.159    27846404.237 9 -65481241.646 8
  22426297.461    22426322.702   110552270.155 9-100007881.383 7
 89 11 13 16  7 59.0800000  0  4G13G12G 3G 9
  18346567.610    18346577.688    74510255.743 9-110064458.324 8
  18692392.634    18692403.401    37512502.974 9 -28505432.423 7
  17441374.633    17441380.017    27832287.917 9 -65492241.407 8
  22449166.700    22449198.258   110672452.485 1 -99914233.623 2
 89 11 13 16  8 29.0800000  0  4G13G12G 3G 9
  18356006.582    18356015.597    74559856.896 8-110025808.199 8
  18710852.181    18710863.635    37609503.041 9 -28429848.206 9
  17438718.505    17438724.818    27818330.798 9 -65503117.116 8
                                 -13478219.828 1 -99739655.554 1
 89 11 13 16  8 59.0800000  0  4G13G12G 3G 9
  18365458.219    18365466.085    74609520.245 8-109987109.611 8
  18729365.030    18729378.372    37706792.302 9 -28354038.678 8
  17436092.547    17436097.915    27804533.168 9 -65513868.535 8
                                 -13659112.900 1 -99511660.554 1
 89 11 13 16  9 29.0800000  0  4G13G12G 3G 9
  18374919.264    18374929.599    74659245.321 9-109948362.937 8
  18747932.177    18747946.327    37804367.376 9 -28278006.450 8
  17433498.028    17433503.620    27790894.290 9 -65524496.258 8
                                 -13795272.345 1 -99283665.554 1
 89 11 13 16  9 59.0800000  0  4G13G12G 3G 9
  18384394.066    18384404.035    74709031.797 9-109909568.418 8
  18766555.126    18766568.009    37902225.121 9 -28201753.925 8
  17430932.437    17430937.909    27777414.068 9 -65535000.343 8
                                 -13943546.414 1 -99055670.554 1
 89 11 13 16 10 29.0800000  0  4G13G12G 3G 9
  18393880.102    18393889.036    74758879.786 9-109870725.942 8
  18785230.554    18785242.575    38000361.826 9 -28125284.053 8
  17428397.282    17428403.331    27764091.878 9 -65545381.311 8
                                 -14021731.260 1 -98827675.554 1
 89 11 13 16 10 59.0800000  0  4G13G12G 3G 9
  18403377.430    18403386.556    74808788.736 9-109831835.969 8
  18803958.144    18803970.979    38098774.228 9 -28048599.392 8
  17425891.910    17425897.957    27750927.507 9 -65555639.318 7
                                 -14219475.877 1 -98599680.554 1
 89 11 13 16 11 29.0800000  0  4G13G12G 3G 9
  18412885.957    18412895.662    74858758.148 8-109792898.886 8
  18822736.798    18822750.248    38197459.150 9 -27971702.341 8
  17423417.852    17423422.809    27737920.336 9 -65565774.853 8
                                 -14400550.494 1 -98371685.554 1
 89 11 13 16 11 59.0800000  0  4G13G12G 3G 9
  18422407.806    18422416.073    74908788.404 8-109753914.418 8
  18841567.116    18841579.431    38296413.213 9 -27894595.571 8
  17420972.236    17420977.602    27725070.775 9 -65575787.542 8
                                 -14509313.082 2 -98143690.554 1
 89 11 13 16 12 29.0800000  0  4G13G12G 3G 9
  18431938.855    18431948.219    74958879.180 9-109714882.792 8
  18860448.536    18860461.140    38395632.901 8 -27817281.841 8
  17418557.443    17418561.906    27712378.043 8 -65585678.037 8
                                 -14890932.914 1 -97915695.554 1
 89 11 13 16 12 59.0800000  0  4G13G12G 3G 9
  18441482.739    18441491.158    75009030.491 9-109675804.003 8
  18879379.453    18879392.120    38495115.330 8 -27739763.363 7
  17416171.766    17416176.915    27699842.202 9 -65595446.244 8
                                 -14930605.696 1 -97687700.554 1
 89 11 13 16 13 29.0800000  0  4G13G12G 3G 9
  18451038.031    18451047.899    75059241.827 7-109636678.437 8
  18898359.644    18898373.716    38594856.563 9 -27662043.229 7
  17413815.247    17413822.219    27687462.596 9 -65605092.743 8
                                 -15068428.118 1 -97459705.554 1
 89 11 13 16 13 59.0800000  0  4G13G12G 3G 9
  18460604.914    18460614.039    75109513.576 9-109597505.792 8
  18917389.072    18917401.815    38694853.677 8 -27584123.677 8
  17411489.786    17411495.344    27675239.245 9 -65614617.447 8
                                 -15464451.933 1 -97231710.554 1
 89 11 13 16 14 29.0800000  0  4G13G12G 3G 9
  18470181.037    18470190.891    75159845.401 8-109558286.334 8
  18936466.200    18936478.391    38795103.195 9 -27506007.440 7
  17409193.386    17409199.088    27663171.838 9 -65624020.660 7
                                 -15593052.369 1 -97003715.554 1
 89 11 13 16 14 59.0800000  0  4G13G12G 3G 9
  18479770.725    18479780.770    75210236.928 9-109519020.349 7
  18955590.834    18955604.392    38895601.624 9 -27427697.246 8
  17406926.805    17406931.532    27651259.650 9 -65633302.927 7
                                 -15747027.430 1 -96775720.554 1
 89 11 13 16 15 29.0800000  0  4G13G12G 3G 9
  18489372.187    18489383.235    75260687.655 9-109479708.248 8
  18974761.596    18974775.256    38996345.075 9 -27349196.151 8
  17404689.570    17404696.408    27639502.631 9 -65642464.266 8
                                 -15853506.012 1 -96547725.554 1
 89 11 13 16 15 59.0800000  0  4G13G12G 3G 9
  18498984.073    18498993.532    75311197.820 8-109440349.810 8
  18993978.214    18993992.676    39097330.382 9 -27270506.580 8
  17402482.327    17402488.599    27627900.576 9 -65651504.868 9
                                 -16047189.258 1 -96319730.554 1
 89 11 13 16 16 29.0800000  0  4G13G12G 3G 9
  18508607.548    18508617.326    75361767.266 8-109400945.177 7
  19013242.392    19013253.995    39198554.249 9 -27191631.117 8
  17400303.208    17400307.477    27616453.304 9 -65660424.830 8
                                 -16370434.889 1 -96091735.554 1
 89 11 13 16 16 59.0800000  0  4G13G12G 3G 9
  18518242.500    18518251.218    75412396.194 8-109361494.171 7
  19032548.635    19032561.659    39300012.929 9 -27112572.691 8
  17398154.176    17398160.178    27605160.318 9 -65669224.583 8
                                 -16537532.369 1 -95863740.554 1
 89 11 13 16 17 29.0800000  0  4G13G12G 3G 9
  18527887.562    18527896.595    75463084.230 9-109321997.108 7
  19051899.178    19051913.659    39401703.310 9 -27033333.740 8
  17396034.123    17396040.665    27594021.415 9 -65677904.325 8
                                 -16631903.875 1 -95635745.554 1
 89 11 13 16 17 59.0800000  0  4G13G12G 3G 9
  18537543.935    18537552.717    75513831.031 8-109282454.274 7
  19071294.465    19071308.497    39503622.304 9 -26953916.642 9
  17393944.767    17393950.055    27583036.694 9 -65686463.856 8
                                 -16807245.002 1 -95407750.554 1
